Date String (YYYY-MM-DD hh:mm:ss) UTC,Instrument flags,Ambient pressure (hPa),Sample flow (lpm),Bypass flow (lpm),Sample temperature (°C),Ambient temperature (°C),ASC tube jacket temperature (°C),LED temperature (°C),Box temperature (°C),Sample RH (%),Span deviation,Mass concentration (μg/m³),Mass concentration (μg/m³),Mass concentration (μg/m³)
DateTimeUTC,F1_M11,P_M11,Q1_M11,Q2_M11,T1_M11,T2_M11,T3_M11,T4_M11,T5_M11,U1_M11,ZSPAN_M11,X0_M11,X2_M11,X1_M11
2021-11-14 09:00:00,,0832.1,4.99,0.00,23.7,22.8,00.0,32.9,25.3,15.3,0000.0,0012.91,0002.82,0000.89
2021-11-14 09:01:00,,0832.1,5.00,0.00,23.7,22.7,00.0,32.9,25.3,15.4,0000.0,0014.28,0003.01,0000.89
2021-11-14 09:02:00,,0832.1,5.02,0.00,23.6,22.6,00.0,32.9,25.3,15.4,0000.0,0014.81,0003.06,0000.89
2021-11-14 09:03:00,,0832.1,4.98,0.00,23.6,22.6,00.0,32.8,25.2,15.4,0000.0,0014.98,0003.09,0000.89
2021-11-14 09:04:00,,0832.1,5.01,0.00,23.6,22.6,00.0,32.8,25.2,15.4,0000.0,0014.82,0003.11,0000.90
2021-11-14 09:05:00,,0832.1,4.99,0.00,23.5,22.6,00.0,32.8,25.2,15.5,0000.0,0015.24,0003.04,0000.91
2021-11-14 09:06:00,,0832.1,5.00,0.00,23.5,22.6,00.0,32.8,25.2,15.5,0000.0,0015.57,0003.03,0000.91
2021-11-14 09:07:00,,0832.2,5.00,0.00,23.5,22.7,00.0,32.7,25.2,15.5,0000.0,0015.06,0003.05,0000.92
2021-11-14 09:08:00,,0832.3,4.99,0.00,23.5,22.7,00.0,32.7,25.3,15.6,0000.0,0015.19,0003.04,0000.92
2021-11-14 09:09:00,,0832.2,5.00,0.00,23.6,22.7,00.0,32.7,25.3,15.5,0000.0,0015.34,0003.06,0000.92
2021-11-14 09:10:00,,0832.1,5.01,0.00,23.6,22.7,00.0,32.7,25.3,15.5,0000.0,0014.69,0003.14,0000.91
2021-11-14 09:11:00,,0832.2,5.00,0.00,23.5,22.7,00.0,32.7,25.2,15.5,0000.0,0013.92,0003.07,0000.91
2021-11-14 09:12:00,,0832.2,5.00,0.00,23.5,22.7,00.0,32.7,25.2,15.5,0000.0,0012.82,0002.92,0000.91
2021-11-14 09:13:00,,0832.1,5.00,0.00,23.5,22.7,00.0,32.7,25.2,15.6,0000.0,0012.86,0002.90,0000.91
2021-11-14 09:14:00,,0832.1,5.01,0.00,23.5,22.8,00.0,32.7,25.2,15.6,0000.0,0013.17,0002.87,0000.91
2021-11-14 09:15:00,,0832.0,5.00,0.00,23.5,22.8,00.0,32.7,25.2,15.6,0000.0,0014.68,0002.87,0000.90
2021-11-14 09:16:00,,0832.0,4.99,0.00,23.5,22.7,00.0,32.6,25.2,15.5,0000.0,0014.52,0002.79,0000.88
2021-11-14 09:17:00,,0832.1,5.00,0.00,23.5,22.7,00.0,32.6,25.2,15.4,0000.0,0013.99,0002.78,0000.88
2021-11-14 09:18:00,,0832.1,5.01,0.00,23.5,22.6,00.0,32.6,25.2,15.5,0000.0,0014.11,0002.82,0000.88
2021-11-14 09:19:00,,0832.1,4.99,0.00,23.5,22.6,00.0,32.6,25.2,15.4,0000.0,0013.59,0002.81,0000.87
2021-11-14 09:20:00,,0832.1,5.01,0.00,23.5,22.7,00.0,32.6,25.2,15.4,0000.0,0013.58,0002.82,0000.88
2021-11-14 09:21:00,,0832.1,4.99,0.00,23.5,22.7,00.0,32.6,25.2,15.4,0000.0,0013.46,0002.77,0000.88
2021-11-14 09:22:00,,0832.1,5.00,0.00,23.5,22.7,00.0,32.6,25.2,15.3,0000.0,0013.33,0002.74,0000.88
2021-11-14 09:23:00,,0832.1,4.99,0.00,23.5,22.7,00.0,32.6,25.1,15.4,0000.0,0013.05,0002.78,0000.88
2021-11-14 09:24:00,,0832.1,5.01,0.00,23.5,22.7,00.0,32.6,25.2,15.4,0000.0,0013.13,0002.71,0000.88
2021-11-14 09:25:00,,0832.1,4.98,0.00,23.5,22.7,00.0,32.6,25.2,15.4,0000.0,0013.90,0002.74,0000.87
2021-11-14 09:26:00,,0832.1,5.01,0.00,23.5,22.7,00.0,32.6,25.2,15.4,0000.0,0013.36,0002.79,0000.86
2021-11-14 09:27:00,,0832.0,5.01,0.00,23.4,22.6,00.0,32.6,25.1,15.5,0000.0,0013.45,0002.94,0000.87
2021-11-14 09:28:00,,0832.0,4.99,0.00,23.4,22.6,00.0,32.5,25.1,15.5,0000.0,0014.06,0003.09,0000.88
2021-11-14 09:29:00,,0832.1,5.01,0.00,23.4,22.6,00.0,32.5,25.1,15.6,0000.0,0013.92,0003.11,0000.87
2021-11-14 09:30:00,,0832.1,5.01,0.00,23.4,22.6,00.0,32.5,25.1,15.5,0000.0,0013.72,0003.01,0000.87
2021-11-14 09:31:00,,0832.1,4.98,0.00,23.4,22.5,00.0,32.5,25.1,15.6,0000.0,0013.60,0003.02,0000.86
2021-11-14 09:32:00,,0832.1,5.01,0.00,23.4,22.5,00.0,32.5,25.1,15.6,0000.0,0013.82,0002.93,0000.85
2021-11-14 09:33:00,,0832.1,5.00,0.00,23.4,22.5,00.0,32.5,25.1,15.5,0000.0,0013.67,0002.97,0000.86
2021-11-14 09:34:00,,0832.1,4.99,0.00,23.3,22.5,00.0,32.5,25.1,15.5,0000.0,0013.71,0003.02,0000.86
2021-11-14 09:35:00,,0832.1,5.01,0.00,23.3,22.5,00.0,32.5,25.1,15.4,0000.0,0013.63,0003.08,0000.88
2021-11-14 09:36:00,,0832.1,4.99,0.00,23.3,22.6,00.0,32.5,25.1,15.4,0000.0,0012.75,0003.07,0000.88
2021-11-14 09:37:00,,0832.1,5.01,0.00,23.3,22.6,00.0,32.5,25.1,15.4,0000.0,0012.45,0003.03,0000.90
2021-11-14 09:38:00,,0832.2,4.99,0.00,23.3,22.6,00.0,32.5,25.0,15.4,0000.0,0011.77,0002.93,0000.90
2021-11-14 09:39:00,,0832.0,5.02,0.00,23.3,22.5,00.0,32.4,25.0,15.3,0000.0,0011.21,0002.81,0000.90
2021-11-14 09:40:00,,0831.9,4.99,0.00,23.3,22.5,00.0,32.4,25.0,15.4,0000.0,0010.76,0002.75,0000.90
2021-11-14 09:41:00,,0831.8,5.00,0.00,23.3,22.5,00.0,32.4,24.9,15.4,0000.0,0010.83,0002.77,0000.92
2021-11-14 09:42:00,,0831.7,5.00,0.00,23.2,22.4,00.0,32.4,24.9,15.5,0000.0,0011.22,0002.79,0000.94
2021-11-14 09:43:00,,0831.7,5.00,0.00,23.2,22.4,00.0,32.4,24.9,15.5,0000.0,0010.82,0002.80,0000.94
2021-11-14 09:44:00,,0831.7,5.00,0.00,23.2,22.4,00.0,32.4,24.9,15.5,0000.0,0011.18,0002.74,0000.93
2021-11-14 09:45:00,,0831.7,5.00,0.00,23.2,22.3,00.0,32.4,24.9,15.5,0000.0,0011.58,0002.65,0000.93
2021-11-14 09:46:00,,0831.8,5.00,0.00,23.2,22.3,00.0,32.3,24.9,15.5,0000.0,0011.93,0002.60,0000.91
2021-11-14 09:47:00,,0831.7,5.00,0.00,23.2,22.3,00.0,32.3,24.8,15.5,0000.0,0012.23,0002.60,0000.91
2021-11-14 09:48:00,,0831.7,4.99,0.00,23.1,22.3,00.0,32.3,24.8,15.6,0000.0,0012.49,0002.59,0000.91
2021-11-14 09:49:00,,0831.6,5.00,0.00,23.1,22.3,00.0,32.3,24.8,15.6,0000.0,0012.36,0002.63,0000.90
2021-11-14 09:50:00,,0831.5,5.01,0.00,23.1,22.3,00.0,32.3,24.8,15.7,0000.0,0012.37,0002.67,0000.90
2021-11-14 09:51:00,,0831.4,5.00,0.00,23.0,22.3,00.0,32.3,24.7,15.8,0000.0,0013.65,0002.73,0000.90
2021-11-14 09:52:00,,0831.4,5.00,0.00,23.0,22.2,00.0,32.2,24.7,15.8,0000.0,0013.98,0002.70,0000.90
2021-11-14 09:53:00,,0831.5,5.00,0.00,23.0,22.2,00.0,32.2,24.7,15.8,0000.0,0013.78,0002.74,0000.88
2021-11-14 09:54:00,,0831.4,5.00,0.00,23.0,22.2,00.0,32.2,24.6,15.8,0000.0,0014.27,0002.79,0000.88
2021-11-14 09:55:00,,0831.5,4.99,0.00,22.9,22.1,00.0,32.2,24.6,15.8,0000.0,0015.58,0002.89,0000.89
2021-11-14 09:56:00,,0831.5,5.00,0.00,22.9,22.1,00.0,32.2,24.6,15.8,0000.0,0015.52,0003.11,0000.89
2021-11-14 09:57:00,,0831.4,5.00,0.00,22.9,22.1,00.0,32.1,24.6,15.8,0000.0,0015.42,0003.18,0000.90
2021-11-14 09:58:00,,0831.2,5.01,0.00,22.9,22.0,00.0,32.1,24.6,15.9,0000.0,0015.02,0003.22,0000.92
2021-11-14 09:59:00,,0831.2,4.99,0.00,22.9,22.0,00.0,32.1,24.6,15.8,0000.0,0014.27,0003.26,0000.94
